GW0415 Weather Reports


time (UTC)temp
F
wind
direction
speed
knots
gust
knots
rain 1hr
in
rain 24hr
in
rain mn
in
humidity
%
barometer
mb
20230128012337 13 14 1.7 2.6 0.00 0.00 0.00 75 1012.6
20230128011837 13 95 1.7 2.6 0.00 0.00 0.00 75 1012.5
20230128011336 13 140 0.9 2.6 0.00 0.00 0.00 75 1012.3
20230128010834 13 135 2.6 4.3 0.00 0.00 0.00 75 1012.0
20230128010333 13 129 1.7 2.6 0.00 0.00 0.00 75 1012.2
20230128005832 14 83 0.0 4.3 0.00 0.00 0.00 74 1012.0
20230128005332 14 79 1.7 3.5 0.00 0.00 0.00 74 1011.9
20230128004832 14 82 1.7 1.7 0.00 0.00 0.00 75 1011.7
20230128004330 14 40 0.0 5.2 0.00 0.00 0.00 74 1011.5
20230128003828 14 78 4.3 4.3 0.00 0.00 0.00 74 1011.6
20230128003327 14 114 0.0 3.5 0.00 0.00 0.00 74 1011.4
20230128002826 14 180 1.7 4.3 0.00 0.00 0.00 74 1011.2
20230128002325 14 218 1.7 3.5 0.00 0.00 0.00 75 1011.2
20230128001825 15 83 2.6 4.3 0.00 0.00 0.00 75 1011.3
20230128001323 15 9 1.7 3.5 0.00 0.00 0.00 75 1011.1
20230128000822 15 108 2.6 6.1 0.00 0.00 0.00 75 1011.0
20230128000324 15 63 0.9 3.5 0.00 0.00 0.00 75 1010.7
20230127235820 15 54 2.6 2.6 0.00 0.00 0.00 74 1010.7
20230127235318 15 114 2.6 5.2 0.00 0.00 0.00 74 1010.4
20230127234817 15 180 0.9 4.3 0.00 0.00 0.00 74 1010.4
20230127234315 16 131 2.6 3.5 0.00 0.00 0.00 74 1010.2
20230127233815 16 75 2.6 6.1 0.00 0.00 0.00 73 1009.9
20230127233315 16 104 0.0 3.5 0.00 0.00 0.00 73 1009.7
20230127232814 16 112 1.7 1.7 0.00 0.00 0.00 72 1009.4
20230127232313 17 85 2.6 3.5 0.00 0.00 0.00 72 1009.3
20230127231812 17 90 0.0 2.6 0.00 0.00 0.00 71 1009.0
20230127231310 17 154 2.6 3.5 0.00 0.00 0.00 71 1009.2
20230127230808 17 101 0.0 4.3 0.00 0.00 0.00 70 1008.8
20230127230309 17 90 0.0 2.6 0.00 0.00 0.00 71 1008.7
20230127225808 18 77 0.9 2.6 0.00 0.00 0.00 70 1008.8
20230127225308 18 86 1.7 5.2 0.00 0.00 0.00 70 1008.8
20230127224807 19 121 2.6 4.3 0.00 0.00 0.00 68 1008.4
20230127224304 19 79 4.3 6.1 0.00 0.00 0.00 68 1008.2
20230127223803 19 2 2.6 2.6 0.00 0.00 0.00 67 1008.1
20230127223303 19 106 1.7 7.0 0.00 0.00 0.00 67 1008.2
20230127222801 19 102 3.5 4.3 0.00 0.00 0.00 67 1007.7
20230127222305 20 122 1.7 7.0 0.00 0.00 0.00 67 1007.7
20230127221800 20 147 6.1 6.1 0.00 0.00 0.00 68 1007.5
20230127221259 20 60 0.9 4.3 0.00 0.00 0.00 67 1007.6
20230127220759 20 66 2.6 4.3 0.00 0.00 0.00 67 1007.4
20230127220257 21 289 1.7 4.3 0.00 0.00 0.00 67 1007.3
20230127215756 21 86 0.0 4.3 0.00 0.00 0.00 66 1007.3
20230127215254 21 65 1.7 2.6 0.00 0.00 0.00 66 1007.0
20230127214753 21 134 4.3 4.3 0.00 0.00 0.00 65 1006.9
20230127214252 21 90 1.7 6.1 0.00 0.00 0.00 65 1006.8
20230127213752 21 90 1.7 5.2 0.00 0.00 0.00 65 1006.8
20230127213251 21 22 2.6 8.7 0.00 0.00 0.00 66 1006.6
20230127212750 21 83 0.9 5.2 0.00 0.00 0.00 66 1006.6
20230127212248 21 270 1.7 5.2 0.00 0.00 0.00 66 1006.3
20230127211747 21 90 0.0 11.3 0.00 0.00 0.00 66 1006.3
20230127211247 21 101 0.0 6.1 0.00 0.00 0.00 66 1006.3
20230127210746 21 114 0.0 5.2 0.00 0.00 0.00 67 1006.1
20230127210246 21 90 2.6 5.2 0.00 0.00 0.00 66 1005.9
20230127205746 22 201 2.6 4.3 0.00 0.00 0.00 66 1005.9
20230127205245 21 26 2.6 5.2 0.00 0.00 0.00 66 1005.9
20230127204745 22 118 2.6 5.2 0.00 0.00 0.00 67 1005.7
20230127204244 22 345 1.7 7.0 0.00 0.00 0.00 68 1005.7
20230127203744 22 138 2.6 7.0 0.00 0.00 0.00 67 1005.6
20230127203242 22 81 1.7 6.1 0.00 0.00 0.00 67 1005.5
20230127202742 23 144 1.7 4.3 0.00 0.00 0.00 67 1005.5
20230127202241 22 123 0.0 7.0 0.00 0.00 0.00 67 1005.4
20230127201741 23 133 1.7 10.4 0.00 0.00 0.00 66 1005.3
20230127201239 23 223 4.3 7.0 0.00 0.00 0.00 66 1005.2
20230127200738 23 133 4.3 8.7 0.00 0.00 0.00 67 1005.1
20230127200238 23 15 2.6 5.2 0.00 0.00 0.00 68 1004.9
20230127195737 23 63 2.6 7.0 0.00 0.00 0.00 69 1004.9
20230127195235 22 53 4.3 8.7 0.00 0.00 0.00 69 1004.9
20230127194735 23 109 2.6 5.2 0.00 0.00 0.00 69 1004.9
20230127194232 23 51 3.5 7.8 0.00 0.00 0.00 69 1004.9
20230127193732 23 142 7.8 9.6 0.00 0.00 0.00 69 1004.8
20230127193230 24 340 6.1 9.6 0.00 0.00 0.00 68 1004.7
20230127192729 24 63 2.6 6.1 0.00 0.00 0.00 69 1004.7
20230127192229 24 165 1.7 7.0 0.00 0.00 0.00 68 1004.4
20230127191727 24 45 1.7 5.2 0.00 0.00 0.00 70 1004.2
20230127191226 24 130 2.6 5.2 0.00 0.00 0.00 70 1004.3
20230127190726 23 71 1.7 7.0 0.00 0.00 0.00 70 1004.3
20230127190223 24 250 1.7 6.1 0.00 0.00 0.00 69 1004.4
20230127185724 24 234 0.9 2.6 0.00 0.00 0.00 69 1004.3
20230127185223 23 9 2.6 7.8 0.00 0.00 0.00 69 1004.0
20230127184722 24 75 5.2 5.2 0.00 0.00 0.00 68 1004.2
20230127184222 25 114 2.6 7.8 0.00 0.00 0.00 69 1003.8
20230127183720 24 50 2.6 7.0 0.00 0.00 0.00 70 1004.0
20230127183219 24 25 4.3 7.0 0.00 0.00 0.00 70 1003.7
20230127182717 24 93 2.6 8.7 0.00 0.00 0.00 70 1003.6
20230127182216 23 139 1.7 7.8 0.00 0.00 0.00 70 1003.4
20230127181716 24 41 8.7 10.4 0.00 0.00 0.00 70 1003.5
20230127181214 24 82 2.6 7.0 0.00 0.00 0.00 70 1003.2
20230127180714 24 6 4.3 12.2 0.00 0.00 0.00 69 1003.2
20230127180211 25 322 4.3 7.8 0.00 0.00 0.00 70 1003.2
20230127175710 24 14 1.7 9.6 0.00 0.00 0.00 72 1003.0
20230127175208 25 34 2.6 6.1 0.00 0.00 0.00 70 1003.0
20230127174708 25 90 0.9 5.2 0.00 0.00 0.00 71 1002.9
20230127174207 24 173 1.7 11.3 0.00 0.00 0.00 71 1003.0
20230127173706 25 126 2.6 11.3 0.00 0.00 0.00 72 1002.7
20230127173204 25 15 2.6 7.0 0.00 0.00 0.00 73 1002.4
20230127172703 26 165 1.7 7.8 0.00 0.00 0.00 73 1002.5
20230127172203 25 168 1.7 4.3 0.00 0.00 0.00 76 1002.3
20230127171701 24 117 1.7 7.0 0.00 0.00 0.00 78 1002.4
20230127171159 24 118 4.3 10.4 0.00 0.00 0.00 79 1002.2
20230127170658 24 249 2.6 6.1 0.00 0.00 0.00 78 1002.0
20230127170157 25 124 2.6 7.8 0.00 0.00 0.00 78 1001.9
20230127165656 26 90 0.0 4.3 0.00 0.00 0.00 79 1001.9
20230127165155 25 107 2.6 6.1 0.00 0.00 0.00 80 1001.8
20230127164653 25 145 0.0 6.1 0.00 0.00 0.00 79 1001.7
20230127164152 25 58 5.2 9.6 0.00 0.00 0.00 79 1001.6
20230127163652 25 315 2.6 7.8 0.00 0.00 0.00 80 1001.4
20230127163152 25 142 5.2 8.7 0.00 0.00 0.00 81 1001.3
20230127162650 25 95 3.5 6.1 0.00 0.00 0.00 82 1001.3
20230127162149 25 15 4.3 8.7 0.00 0.00 0.00 82 1001.2
20230127161647 25 103 2.6 7.0 0.00 0.00 0.00 81 1000.7
20230127161145 26 64 2.6 6.1 0.00 0.00 0.00 82 1000.9
20230127160643 26 23 4.3 7.8 0.00 0.00 0.00 81 1000.8
20230127160143 26 125 2.6 7.0 0.00 0.00 0.00 81 1000.4
20230127155641 26 122 5.2 5.2 0.00 0.00 0.00 82 1000.3
20230127155140 26 117 0.9 8.7 0.00 0.00 0.00 82 1000.1
20230127154638 26 90 2.6 7.0 0.00 0.00 0.00 81 1000.2
20230127154137 26 282 6.1 13.0 0.00 0.00 0.00 81 1000.0
20230127153635 26 159 1.7 6.1 0.00 0.00 0.00 82 1000.0
20230127153133 27 123 0.0 25.2 0.00 0.00 0.00 82 999.9
20230127152633 27 75 1.7 6.1 0.00 0.00 0.00 82 999.5
20230127152132 27 172 1.7 7.0 0.00 0.00 0.00 82 999.3
20230127151632 27 32 2.6 8.7 0.00 0.00 0.00 82 999.3
20230127151131 28 92 4.3 7.0 0.00 0.00 0.00 82 998.9
20230127150631 28 61 1.7 8.7 0.00 0.00 0.00 82 998.7
20230127150129 28 97 2.6 4.3 0.00 0.00 0.00 82 998.6
20230127145628 28 87 2.6 7.8 0.00 0.00 0.00 82 998.4
20230127145127 28 18 4.3 6.1 0.00 0.00 0.00 83 998.2
20230127144625 28 90 1.7 5.2 0.00 0.00 0.00 84 998.1
20230127144126 28 59 1.7 9.6 0.00 0.00 0.00 84 997.9
20230127143625 28 157 1.7 4.3 0.00 0.00 0.00 84 997.9
20230127143123 29 133 0.0 7.8 0.00 0.00 0.00 84 997.8
20230127142621 30 143 3.5 7.8 0.00 0.00 0.00 84 997.6
20230127142119 30 60 3.5 5.2 0.00 0.00 0.00 84 997.3
20230127141619 31 292 4.3 7.8 0.00 0.00 0.00 85 997.2
20230127141118 32 103 2.6 6.1 0.00 0.00 0.00 85 996.6
20230127140617 32 94 6.1 7.8 0.00 0.00 0.00 87 996.4
20230127140115 33 85 5.2 7.0 0.00 0.00 0.00 88 996.3
20230127135615 33 120 2.6 6.1 0.00 0.00 0.00 90 995.9
20230127135114 33 134 7.0 8.7 0.00 0.00 0.00 91 995.6
20230127134613 33 63 0.9 4.3 0.00 0.00 0.00 96 995.8
20230127134112 33 123 0.9 5.2 0.00 0.00 0.00 97 995.5
20230127133612 33 349 3.5 3.5 0.00 0.00 0.00 97 995.4
20230127133111 33 334 0.0 2.6 0.00 0.00 0.00 97 995.5
20230127132610 33 141 1.7 2.6 0.00 0.00 0.00 97 995.4
20230127132109 33 152 2.6 4.3 0.00 0.00 0.00 97 995.0
20230127131609 33 96 1.7 2.6 0.00 0.00 0.00 97 995.0
20230127131109 33 31 1.7 2.6 0.00 0.00 0.00 97 995.0
20230127130609 33 61 1.7 4.3 0.00 0.00 0.00 97 995.0
20230127130107 32 109 0.9 4.3 0.00 0.00 0.00 97 994.9
20230127125607 32 37 1.7 3.5 0.00 0.00 0.00 97 994.6
20230127125105 32 49 0.9 4.3 0.00 0.00 0.00 97 994.6
20230127124604 32 57 1.7 2.6 0.00 0.00 0.00 97 994.6
20230127124102 32 98 0.0 2.6 0.00 0.00 0.00 97 994.5
20230127123601 32 101 0.0 4.3 0.00 0.00 0.00 97 994.6
20230127123100 31 103 0.0 2.6 0.00 0.00 0.00 97 994.6
20230127122558 31 90 0.0 2.6 0.00 0.00 0.00 97 994.7
20230127122056 31 112 1.7 3.5 0.00 0.00 0.00 97 994.4
20230127121555 30 90 0.0 2.6 0.00 0.00 0.00 97 994.4
20230127121053 30 22 1.7 4.3 0.00 0.00 0.00 97 994.5
20230127120552 30 23 0.9 2.6 0.00 0.00 0.00 97 994.5
20230127120052 30 129 1.7 4.3 0.00 0.00 0.00 97 994.5
20230127115552 30 41 0.0 3.5 0.00 0.00 0.00 97 994.2
20230127115051 30 132 1.7 4.3 0.00 0.00 0.00 97 994.5
20230127114551 29 58 1.7 2.6 0.00 0.00 0.00 97 994.4
20230127114051 29 85 1.7 3.5 0.00 0.00 0.00 97 994.5
20230127113550 29 61 1.7 5.2 0.00 0.00 0.00 97 994.3
20230127113049 29 137 3.5 3.5 0.00 0.00 0.00 97 994.3
20230127112549 29 180 0.9 4.3 0.00 0.00 0.00 96 994.3
20230127112047 28 143 2.6 2.6 0.00 0.00 0.00 96 994.4
20230127111547 28 90 0.0 2.6 0.00 0.00 0.00 96 994.2
20230127111045 28 73 3.5 4.3 0.00 0.00 0.00 96 994.5
20230127110544 28 29 0.0 4.3 0.00 0.00 0.00 96 994.6
20230127110044 28 38 1.7 2.6 0.00 0.00 0.00 96 994.6
20230127105543 28 114 2.6 4.3 0.00 0.00 0.00 95 994.8
20230127105042 28 90 0.0 5.2 0.00 0.00 0.00 95 994.7
20230127104541 28 132 1.7 3.5 0.00 0.00 0.00 95 995.0
20230127104041 28 148 2.6 5.2 0.00 0.00 0.00 95 994.9
20230127103539 28 14 0.9 5.2 0.00 0.00 0.00 95 995.1
20230127103039 27 150 2.6 6.1 0.00 0.00 0.00 94 994.9
20230127102537 27 157 2.6 8.7 0.00 0.00 0.00 94 995.1
20230127102036 27 140 2.6 3.5 0.00 0.00 0.00 94 995.2
20230127101535 27 20 0.9 3.5 0.00 0.00 0.00 94 995.0
20230127101035 27 183 1.7 7.0 0.00 0.00 0.00 93 995.2
20230127100535 27 130 2.6 2.6 0.00 0.00 0.00 93 995.3
20230127100035 26 320 0.9 10.4 0.00 0.00 0.00 93 995.8
20230127095534 26 142 3.5 5.2 0.00 0.00 0.00 94 995.6
20230127095033 26 95 1.7 4.3 0.00 0.00 0.00 94 995.8
20230127094532 26 188 1.7 5.2 0.00 0.00 0.00 94 995.6
20230127094030 26 105 1.7 6.1 0.00 0.00 0.00 93 995.6
20230127093530 25 107 0.0 4.3 0.00 0.00 0.00 93 995.9
20230127093029 25 110 1.7 7.0 0.00 0.00 0.00 93 996.2
20230127092528 25 41 3.5 4.3 0.00 0.00 0.00 94 996.0
20230127092027 25 74 1.7 3.5 0.00 0.00 0.00 94 996.4
20230127091526 25 96 0.9 7.8 0.00 0.00 0.00 94 996.3
20230127091025 24 176 1.7 7.8 0.00 0.00 0.00 94 996.6
20230127090525 24 140 3.5 4.3 0.00 0.00 0.00 94 996.6
20230127090024 24 127 1.7 6.1 0.00 0.00 0.00 94 996.6
20230127085524 24 142 0.0 5.2 0.00 0.00 0.00 94 996.9
20230127085023 24 133 1.7 7.8 0.00 0.00 0.00 94 997.0
20230127084523 24 74 1.7 6.1 0.00 0.00 0.00 94 997.2
20230127084021 24 122 1.7 4.3 0.00 0.00 0.00 94 997.1
20230127083521 24 23 0.0 8.7 0.00 0.00 0.00 94 997.2
20230127083020 24 110 0.0 3.5 0.00 0.00 0.00 93 997.3
20230127082519 23 50 1.7 5.2 0.00 0.00 0.00 93 997.6
20230127082017 23 124 0.0 3.5 0.00 0.00 0.00 93 997.8
20230127081516 23 113 0.0 11.3 0.00 0.00 0.00 92 998.0
20230127081016 23 180 1.7 4.3 0.00 0.00 0.00 93 998.0
20230127080514 23 141 4.3 5.2 0.00 0.00 0.00 93 998.2
20230127080012 23 127 1.7 7.0 0.00 0.00 0.00 93 998.1
20230127075512 23 158 3.5 6.1 0.00 0.00 0.00 93 998.2
20230127075010 22 143 4.3 6.1 0.00 0.00 0.00 93 998.4
20230127074509 22 142 3.5 6.1 0.00 0.00 0.00 93 998.3
20230127074007 22 154 1.7 7.0 0.00 0.00 0.00 94 998.5
20230127073506 22 12 1.7 6.1 0.00 0.00 0.00 94 998.8
20230127073006 21 116 2.6 4.3 0.00 0.00 0.00 94 998.6
20230127072506 20 133 0.0 3.5 0.00 0.00 0.00 94 999.0
20230127072005 20 150 3.5 4.3 0.00 0.00 0.00 94 999.2
20230127071505 19 100 1.7 2.6 0.00 0.00 0.00 93 999.1
20230127071005 19 90 0.0 4.3 0.00 0.00 0.00 93 999.1
20230127070504 18 111 2.6 2.6 0.00 0.00 0.00 93 999.4
20230127070003 18 151 2.6 3.5 0.00 0.00 0.00 92 999.6
20230127065502 17 74 0.0 4.3 0.00 0.00 0.00 92 1000.1
20230127065001 17 141 3.5 6.1 0.00 0.00 0.00 92 1000.1
20230127064500 17 109 0.0 4.3 0.00 0.00 0.00 91 1000.3
20230127063959 17 105 2.6 4.3 0.00 0.00 0.00 91 1000.6
20230127063458 17 120 1.7 4.3 0.00 0.00 0.00 91 1000.8
20230127062957 16 132 3.5 5.2 0.00 0.00 0.00 90 1000.9
20230127062456 16 109 0.9 6.1 0.00 0.00 0.00 90 1001.0
20230127061956 16 81 1.7 6.1 0.00 0.00 0.00 90 1001.0
20230127061455 16 147 2.6 4.3 0.00 0.00 0.00 89 1001.3
20230127060954 16 69 0.9 3.5 0.00 0.00 0.00 89 1001.3
20230127060454 16 95 1.7 6.1 0.00 0.00 0.00 88 1001.7
20230127055951 16 158 2.6 7.8 0.00 0.00 0.00 88 1001.7
20230127055450 16 191 1.7 6.1 0.00 0.00 0.00 88 1002.1
20230127054949 16 139 1.7 7.0 0.00 0.00 0.00 87 1002.0
20230127054448 15 66 3.5 3.5 0.00 0.00 0.00 87 1002.4
20230127053947 15 142 1.7 4.3 0.00 0.00 0.00 86 1002.4
20230127053446 15 105 2.6 5.2 0.00 0.00 0.00 86 1002.4
20230127052945 15 140 2.6 7.8 0.00 0.00 0.00 86 1002.6
20230127052444 15 124 0.0 4.3 0.00 0.00 0.00 87 1003.0
20230127051943 15 144 4.3 6.1 0.00 0.00 0.00 86 1002.9
20230127051443 15 138 5.2 5.2 0.00 0.00 0.00 86 1003.3
20230127050943 15 0 0.0 7.0 0.00 0.00 0.00 86 1003.5
20230127050443 14 50 0.0 6.1 0.00 0.00 0.00 86 1003.7
20230127045942 14 53 0.9 5.2 0.00 0.00 0.00 85 1004.0
20230127045441 14 245 2.6 4.3 0.00 0.00 0.00 85 1004.1
20230127044940 14 103 1.7 6.1 0.00 0.00 0.00 85 1004.3
20230127044439 14 157 0.9 3.5 0.00 0.00 0.00 85 1004.4
20230127043938 14 125 1.7 6.1 0.00 0.00 0.00 85 1004.8
20230127043437 14 171 1.7 5.2 0.00 0.00 0.00 84 1004.9
20230127042936 14 154 1.7 7.0 0.00 0.00 0.00 84 1005.2
20230127042434 14 114 2.6 2.6 0.00 0.00 0.00 84 1005.4
20230127041933 14 139 4.3 7.0 0.00 0.00 0.00 84 1005.3
20230127041432 14 129 4.3 5.2 0.00 0.00 0.00 84 1005.6
20230127040930 14 108 1.7 4.3 0.00 0.00 0.00 83 1005.4
20230127040428 14 131 0.0 4.3 0.00 0.00 0.00 83 1005.8
20230127035928 14 151 0.9 2.6 0.00 0.00 0.00 83 1005.8
20230127035427 14 70 2.6 5.2 0.00 0.00 0.00 83 1006.1
20230127034925 14 180 0.9 2.6 0.00 0.00 0.00 83 1006.2
20230127034425 14 133 2.6 4.3 0.00 0.00 0.00 82 1006.4
20230127033924 14 82 0.0 3.5 0.00 0.00 0.00 82 1006.6
20230127033424 13 145 0.9 5.2 0.00 0.00 0.00 82 1006.8
20230127032923 13 110 2.6 7.0 0.00 0.00 0.00 81 1006.8
20230127032423 13 334 0.9 6.1 0.00 0.00 0.00 81 1006.9
20230127031923 13 3 1.7 6.1 0.00 0.00 0.00 81 1007.4
20230127031420 13 130 0.0 4.3 0.00 0.00 0.00 81 1007.6
20230127030919 13 128 0.0 3.5 0.00 0.00 0.00 81 1007.6
20230127030417 14 190 3.5 3.5 0.00 0.00 0.00 80 1007.9
20230127025917 14 148 0.0 3.5 0.00 0.00 0.00 81 1007.9
20230127025417 14 97 0.9 3.5 0.00 0.00 0.00 81 1008.2
20230127024916 13 75 0.9 6.1 0.00 0.00 0.00 81 1008.2
20230127024416 13 154 2.6 4.3 0.00 0.00 0.00 81 1008.2
20230127023915 13 90 0.0 4.3 0.00 0.00 0.00 81 1008.1
20230127023413 13 232 0.0 3.5 0.00 0.00 0.00 81 1008.1
20230127022911 13 174 2.6 3.5 0.00 0.00 0.00 81 1008.5
20230127022409 13 110 1.7 3.5 0.00 0.00 0.00 81 1008.7
20230127021909 13 143 2.6 4.3 0.00 0.00 0.00 80 1008.6
20230127021408 13 147 0.0 4.3 0.00 0.00 0.00 80 1009.0
20230127020906 13 150 2.6 3.5 0.00 0.00 0.00 80 1009.0
20230127020406 13 135 2.6 4.3 0.00 0.00 0.00 79 1009.3
20230127015904 13 140 2.6 6.1 0.00 0.00 0.00 79 1009.4
20230127015402 13 96 0.9 6.1 0.00 0.00 0.00 78 1009.7
20230127014902 13 150 0.0 5.2 0.00 0.00 0.00 79 1009.7
20230127014400 13 126 0.9 7.0 0.00 0.00 0.00 79 1010.0
20230127013858 13 111 0.9 7.8 0.00 0.00 0.00 79 1010.1
20230127013357 13 52 0.0 5.2 0.00 0.00 0.00 79 1010.4
20230127012855 13 134 3.5 4.3 0.00 0.00 0.00 79 1010.4